54P/de Vico-Swift-NEAT (1995)

Japanese version
Home page
Updated on October 22, 2002

---------------------------------------------------------------------

* Profile

* Orbital Elements

Epoch 1995 Mar. 24.0 TT = JDT 2449800.5  
T 1995 Apr. 2.84358 TT                                  Muraoka 
q   2.1445795            (2000.0)            P               Q
n   0.13477362     Peri.    1.84180     +0.99987666     -0.01560621
a   3.7676115      Node   359.04704     +0.01271004     +0.87002998
e   0.4307854      Incl.    6.08868     +0.00922608     +0.49275174
P   7.31
>From 19 observations 1894-1965, mean residual 1".41.  Nongravitational
   parameters A1 = +0.61 +/- 0.13, A2 = -0.0406 +/- 0.0065.

* Finding Charts

* 1994 May 8 - 1996 Feb. 27

* Magnitudes Graph

        m1 = 10.0 + 5 log d + 15.0 log r

---------------------------------------------------------------------

The orbital elements are calculated by Kenji Muraoka.
The charts are made with StellaNavigator Ver.2.0 for Windows (AstroArts / ASCII).
The magnitudes graphs are made with Comet for Windows.

---------------------------------------------------------------------

Copyright(C) Seiichi Yoshida (comet@aerith.net). All rights reserved.